Вернуться в каталог

AL-AMAL

HOPE

АктивенНаукаVLEO
NORAD 45918·PAYLOAD·🇦🇪 UAE

Запущен Jul 19, 2020 с Tanegashima Space Center

Loading…

Ближайшие Пролёты (ближайшие 24 часа)

TLE

УстаревшееSource: Space-Track

Эпоха: Jul 19, 2020, 22:09 UTC

1 45918U 20047A   20201.92332176 +.00001484 -46927-5 +00000-0 0  9999
2 45918 030.3470 309.5833 0007500 293.9000 179.9000 16.12219793000009

Отслеживайте AL-AMAL в реальном времени с AllMySat

Download on the App Store